Tracking 31027 objects as of 19-Jul-2025
HD Live streaming from Space Station
objects crossing your sky now

STARLINK-5947

Track STARLINK-5947 now!
10-day predictions
STARLINK-5947 is classified as:


NORAD ID: 55989
Int'l Code: 2023-042D
Perigee: 565.1 km
Apogee: 567.4 km
Inclination: 43.0 °
Period: 95.8 minutes
Semi major axis: 6937 km
RCS: Unknown
Launch date: March 24, 2022
Source: United States (US)
Launch site: AIR FORCE EASTERN TEST RANGE (AFETR)
Your satellite tracking list
NUSAT-20 (GRACE)
Track 1 satellite(s)




NASA's NSSDC Master Catalog

Two Line Element Set (TLE):
1 55989U 23042D   25199.52638236 -.00000274  00000-0 -51685-5 0  9993
2 55989  43.0038 248.7066 0001673 279.0594  81.0059 15.02532937127686
Source of the keplerian elements: AFSPC